Afton Municipal Airport, WY

7:48 AM MST on December 11, 2019 (GMT -0700)
Afton Municipal

Weather History for KAFO - November, 2019

Change the Weather History Date:

Friday, November 22, 2019

  Actual Average Record
Temperature  
Mean Temperature 32 °F -  
Max Temperature 35 °F 35 °F 53 °F (2017)
Min Temperature 28 °F 13 °F 1 °F (2013)
Degree Days  
Heating Degree Days 34    
Moisture  
Dew Point 26 °F    
Average Humidity 83    
Maximum Humidity 93    
Minimum Humidity 60    
Precipitation  
Precipitation 0.00 in - - ()
Sea Level Pressure  
Sea Level Pressure 30.18 in    
Wind  
Wind Speed 1 mph ()    
Max Wind Speed 7 mph    
Max Gust Speed -    
Visibility 10.0 miles    
Events      
Averages and records for this station are not official NWS values.
T = Trace of Precipitation, MM = Missing Value Source: Averaged Metar Reports

Daily Weather History Graph

Daily Weather History Graph

Search for Another Location

Airport or City:

Astronomy

Nov. 22, 2019 Rise Set
Actual Time 7:23 AM MST 4:55 PM MST
Civil Twilight 6:52 AM MST 5:26 PM MST
Nautical Twilight 6:18 AM MST 6:01 PM MST
Astronomical Twilight 5:44 AM MST 6:34 PM MST
Moon 2:25 AM MST (11/22) 3:05 PM MST (11/22)
Length of Visible Light 10h 33m
Length of Day
9h 31m
Waning Crescent, 19% of the Moon is Illuminated
Nov 22
Waning Crescent
Nov 26
New
Dec 3
First Quarter
Dec 11
Full
Dec 18
Last Quarter

Hourly Weather History & Observations

Time (MST) Temp. Windchill Dew Point Humidity Pressure Visibility Wind Dir Wind Speed Gust Speed Precip Events Conditions
12:15 AM 30.2 °F - 24.8 °F 80% 30.09 in 10.0 mi Calm Calm - N/A   Overcast
12:35 AM 30.2 °F - 24.8 °F 80% 30.09 in 10.0 mi Calm Calm - N/A   Overcast
12:55 AM 28.4 °F - 24.8 °F 86% 30.09 in 10.0 mi Calm Calm - N/A   Overcast
1:15 AM 28.4 °F - 26.6 °F 93% 30.09 in 10.0 mi Calm Calm - N/A   Overcast
1:35 AM 28.4 °F - 26.6 °F 93% 30.09 in 10.0 mi Calm Calm - N/A   Overcast
1:55 AM 28.4 °F - 26.6 °F 93% 30.10 in 10.0 mi Calm Calm - N/A   Overcast
2:15 AM 28.4 °F - 26.6 °F 93% 30.11 in 10.0 mi Calm Calm - N/A   Overcast
2:35 AM 28.4 °F - 26.6 °F 93% 30.11 in 10.0 mi Calm Calm - N/A   Overcast
2:55 AM 28.4 °F - 26.6 °F 93% 30.10 in 10.0 mi Calm Calm - N/A   Overcast
3:15 AM 28.4 °F - 26.6 °F 93% 30.10 in 10.0 mi Calm Calm - N/A   Overcast
3:35 AM 28.4 °F - 26.6 °F 93% 30.09 in 10.0 mi Calm Calm - N/A   Overcast
3:55 AM 28.4 °F - 26.6 °F 93% 30.09 in 10.0 mi Calm Calm - N/A   Overcast
4:15 AM 28.4 °F - 26.6 °F 93% 30.09 in 10.0 mi Calm Calm - N/A   Overcast
4:35 AM 28.4 °F - 26.6 °F 93% 30.11 in 10.0 mi Calm Calm - N/A   Overcast
4:55 AM 28.4 °F - 26.6 °F 93% 30.11 in 10.0 mi Calm Calm - N/A   Overcast
5:15 AM 28.4 °F - 26.6 °F 93% 30.11 in 10.0 mi Calm Calm - N/A   Overcast
5:35 AM 28.4 °F - 26.6 °F 93% 30.12 in 10.0 mi Calm Calm - N/A   Overcast
6:35 AM 28.4 °F 24.6 °F 26.6 °F 93% 30.13 in 10.0 mi WNW 3.5 mph - N/A   Overcast
6:55 AM 28.4 °F - 26.6 °F 93% 30.14 in 10.0 mi Calm Calm - N/A   Overcast
7:35 AM 28.4 °F - 26.6 °F 93% 30.15 in 10.0 mi Calm Calm - N/A   Overcast
7:55 AM 28.4 °F - 26.6 °F 93% 30.15 in 10.0 mi Calm Calm - N/A   Overcast
8:15 AM 28.4 °F - 26.6 °F 93% 30.16 in 10.0 mi Calm Calm - N/A   Overcast
8:35 AM 30.2 °F - 26.6 °F 86% 30.17 in 10.0 mi Calm Calm - N/A   Overcast
8:55 AM 30.2 °F - 26.6 °F 86% 30.17 in 10.0 mi Calm Calm - N/A   Overcast
9:15 AM 30.2 °F - 26.6 °F 86% 30.18 in 10.0 mi Calm Calm - N/A   Overcast
9:35 AM 30.2 °F - 26.6 °F 86% 30.19 in 10.0 mi Calm Calm - N/A   Overcast
9:55 AM 30.2 °F - 26.6 °F 86% 30.20 in 10.0 mi Calm Calm - N/A   Overcast
10:35 AM 32.0 °F - 26.6 °F 80% 30.20 in 10.0 mi Calm Calm - N/A   Overcast
10:55 AM 32.0 °F - 26.6 °F 80% 30.20 in 10.0 mi Calm Calm - N/A   Overcast
11:15 AM 32.0 °F - 26.6 °F 80% 30.20 in 10.0 mi Calm Calm - N/A   Overcast
11:35 AM 32.0 °F - 26.6 °F 80% 30.19 in 10.0 mi Calm Calm - N/A   Overcast
11:55 AM 32.0 °F - 28.4 °F 87% 30.19 in 10.0 mi Calm Calm - N/A   Overcast
12:15 PM 33.8 °F - 26.6 °F 75% 30.18 in 10.0 mi Calm Calm - N/A   Overcast
12:35 PM 33.8 °F 30.8 °F 28.4 °F 81% 30.18 in 10.0 mi NW 3.5 mph - N/A   Overcast
12:55 PM 33.8 °F 29.6 °F 28.4 °F 81% 30.17 in 10.0 mi NW 4.6 mph - N/A   Overcast
1:35 PM 35.6 °F - 24.8 °F 65% 30.17 in 10.0 mi Calm Calm - N/A   Overcast
1:55 PM 35.6 °F 31.7 °F 23.0 °F 60% 30.17 in 10.0 mi North 4.6 mph - N/A   Overcast
2:35 PM 35.6 °F 31.7 °F 23.0 °F 60% 30.18 in 10.0 mi North 4.6 mph - N/A   Overcast
2:55 PM 35.6 °F 32.8 °F 23.0 °F 60% 30.18 in 10.0 mi North 3.5 mph - N/A   Overcast
3:55 PM 35.6 °F 32.8 °F 24.8 °F 65% 30.19 in 10.0 mi NW 3.5 mph - N/A   Overcast
4:15 PM 33.8 °F 29.6 °F 24.8 °F 70% 30.20 in 10.0 mi NNW 4.6 mph - N/A   Overcast
4:35 PM 33.8 °F 29.6 °F 26.6 °F 75% 30.20 in 10.0 mi WNW 4.6 mph - N/A   Overcast
4:55 PM 33.8 °F 29.6 °F 26.6 °F 75% 30.21 in 10.0 mi NW 4.6 mph - N/A   Overcast
5:35 PM 33.8 °F 28.6 °F 26.6 °F 75% 30.23 in 10.0 mi NNW 5.8 mph - N/A   Overcast
5:55 PM 32.0 °F - 26.6 °F 80% 30.23 in 10.0 mi North - - N/A   Overcast
6:15 PM 32.0 °F - 26.6 °F 80% 30.23 in 10.0 mi Calm Calm - N/A   Overcast
6:35 PM 32.0 °F 27.5 °F 26.6 °F 80% 30.23 in 10.0 mi North 4.6 mph - N/A   Overcast
6:55 PM 32.0 °F 28.7 °F 24.8 °F 75% 30.23 in 10.0 mi North 3.5 mph - N/A   Overcast
7:15 PM 32.0 °F 27.5 °F 26.6 °F 80% 30.23 in 10.0 mi North 4.6 mph - N/A   Overcast
7:35 PM 32.0 °F 25.6 °F 26.6 °F 80% 30.24 in 10.0 mi North 6.9 mph - N/A   Overcast
7:55 PM 32.0 °F 26.4 °F 26.6 °F 80% 30.26 in 10.0 mi North 5.8 mph - N/A   Overcast
8:15 PM 32.0 °F 26.4 °F 24.8 °F 75% 30.27 in 10.0 mi North 5.8 mph - N/A   Overcast
8:35 PM 32.0 °F 25.6 °F 24.8 °F 75% 30.26 in 10.0 mi North 6.9 mph - N/A   Overcast
8:55 PM 32.0 °F 28.7 °F 24.8 °F 75% 30.26 in 10.0 mi North 3.5 mph - N/A   Overcast
9:15 PM 32.0 °F - 26.6 °F 80% 30.27 in 10.0 mi North - - N/A   Overcast
9:35 PM 32.0 °F - 24.8 °F 75% 30.27 in 10.0 mi North - - N/A   Overcast
9:55 PM 32.0 °F - 26.6 °F 80% 30.28 in 10.0 mi North - - N/A   Overcast
10:15 PM 32.0 °F - 24.8 °F 75% 30.28 in 10.0 mi Calm Calm - N/A   Overcast
10:55 PM 30.2 °F 26.7 °F 26.6 °F 86% 30.28 in 10.0 mi North 3.5 mph - N/A   Overcast
11:15 PM 30.2 °F 23.4 °F 26.6 °F 86% 30.29 in 10.0 mi North 6.9 mph - N/A   Overcast
11:35 PM 30.2 °F 25.4 °F 26.6 °F 86% 30.29 in 10.0 mi NNW 4.6 mph - N/A   Overcast
11:55 PM 28.4 °F 23.3 °F 24.8 °F 86% 30.29 in 10.0 mi North 4.6 mph - N/A   Mostly Cloudy